Temp
84 83 83 82 83 84 83 85 84 81 79 81 82 81 78 72 69 66 66 68 73 78 83 77 77 84 83 80 84 85 85 84 82 82 82 83 80 77 76 77 77 75 75 75 76 78 78 77 77 77 77 76 77 77 77 78 78 78 77 77 80 80 79 79 78 76 76 76 76 78 79 80 80 80
82 82 82 82 83 84 84 83 85 81 80 82 82 81 81 77 72 70 66 66 74 75 80 82 75 78 83 85 85 88 84 83 86 85 84 83 82 76 76 77 76 76 76 76 75 75 76 76 76 76 77 77 76 76 76 78 78 79 78 77 77 77 78 77 74 74 74 75 75 76 77 78 79 79
81 79 79 81 81 83 83 82 80 84 84 84 82 82 83 80 77 72 69 65 73 79 75 80 84 83 83 85 84 88 86 84 85 84 84 83 79 77 77 77 76 76 75 76 75 75 75 76 76 77 78 78 78 78 78 78 77 76 77 77 77 76 76 75 74 74 74 75 76 76 76 76 77 78
82 79 80 80 80 81 81 83 84 84 85 85 82 83 81 78 80 74 71 68 69 77 79 80 82 85 83 84 85 83 86 86 82 82 82 81 78 79 80 76 76 75 75 75 75 74 75 76 77 77 78 79 78 77 77 77 77 77 75 75 76 75 73 74 73 74 74 75 75 76 76 76 76 77
82 78 78 79 81 83 83 82 83 83 85 85 84 82 80 79 80 77 72 70 71 75 80 80 81 83 84 82 83 83 82 81 83 83 82 82 82 83 83 81 75 75 74 75 74 74 74 76 78 79 80 79 78 78 78 77 76 75 75 75 75 74 73 73 73 74 74 75 75 76 76 76 75 76
81 79 77 78 81 82 82 82 83 84 84 83 83 82 82 79 78 78 75 71 69 70 75 75 80 80 83 79 83 79 78 78 79 80 81 83 80 82 81 80 83 74 74 74 74 74 73 74 76 77 79 79 79 79 79 79 78 77 75 74 74 73 73 73 73 74 73 74 75 75 76 75 75 75
78 78 76 78 79 82 79 80 81 79 79 81 82 81 80 77 78 77 75 70 68 69 70 75 76 76 77 76 77 79 80 76 78 77 80 81 83 84 83 81 86 76 74 74 74 73 73 73 74 76 77 77 77 78 78 77 76 75 74 74 73 73 73 73 72 73 73 73 74 75 75 75 75 75
76 75 75 78 78 76 75 76 77 77 78 78 78 78 78 78 78 77 76 73 70 69 68 70 73 75 73 74 77 77 78 77 76 78 78 79 81 81 83 83 84 81 74 75 74 74 73 72 73 73 74 74 75 74 73 74 74 73 73 72 72 72 72 72 71 71 72 72 72 72 73 74 74 74
76 75 75 77 76 75 74 74 75 76 76 76 76 76 75 74 74 74 74 73 72 68 67 69 72 73 74 75 73 73 72 72 74 75 74 76 77 78 81 83 86 76 74 73 73 73 73 72 72 72 72 72 72 72 72 72 72 72 71 71 70 71 71 70 70 69 69 70 70 71 71 71 72 72
75 76 77 76 75 75 73 74 74 74 74 74 74 74 72 72 72 71 71 71 70 69 68 68 68 70 70 68 69 71 70 69 69 70 72 74 76 75 76 77 83 81 79 79 76 72 71 70 69 71 71 71 71 71 71 71 71 71 70 69 69 70 70 70 69 69 68 68 68 69 69 69 68 69
76 75 76 75 75 73 72 72 72 72 72 73 72 71 70 71 70 69 69 70 70 69 68 67 64 62 66 67 65 69 70 70 69 66 67 67 72 72 73 72 76 80 81 79 77 77 76 74 71 68 68 70 71 71 71 72 72 71 69 68 69 70 70 69 69 69 68 68 67 66 66 67 69 69
76 74 75 76 74 73 72 72 72 72 70 71 70 70 70 69 68 68 68 68 67 66 65 64 61 64 64 65 66 68 67 66 65 68 66 64 66 68 69 72 72 73 73 76 79 78 77 74 72 69 69 70 70 71 71 72 73 72 71 69 70 70 69 69 69 68 68 68 67 67 65 64 66 67
74 73 75 75 74 73 74 75 72 72 72 70 68 68 68 67 66 66 66 66 65 65 65 63 64 64 63 63 63 63 63 62 62 65 66 65 67 67 67 68 71 72 71 75 78 77 75 74 73 71 70 71 70 71 72 73 73 72 70 69 69 69 69 69 68 68 68 67 67 67 66 63 62 64
74 74 74 75 76 74 74 74 74 74 73 73 72 69 68 67 65 65 65 64 64 64 62 62 61 61 62 61 60 61 64 66 67 66 65 64 65 66 66 67 68 70 69 69 69 73 77 74 73 74 74 77 75 74 73 73 75 72 70 69 69 69 69 68 68 67 67 66 66 66 65 64 64 63
73 73 74 74 75 72 72 72 74 73 73 73 73 73 72 70 67 64 63 63 65 63 63 63 63 61 61 61 61 62 65 66 65 64 64 64 64 63 62 60 65 69 67 66 66 68 74 75 71 71 72 73 71 73 70 68 71 70 69 69 69 68 68 68 68 67 66 65 65 65 64 64 64 63
73 72 73 73 74 72 71 70 70 70 72 72 73 73 72 70 72 71 66 63 63 62 61 61 62 62 62 63 65 65 65 64 65 66 65 64 62 62 62 62 61 66 68 65 64 64 71 73 72 69 69 70 71 71 68 68 69 69 69 69 68 68 68 68 67 66 66 65 65 64 64 64 64 64
71 71 71 71 72 72 72 69 68 67 68 70 72 72 72 71 71 70 70 71 67 64 61 61 62 63 63 63 63 64 64 66 64 64 63 64 64 64 62 62 64 66 68 65 64 63 67 69 69 66 67 68 70 70 66 65 69 68 68 68 68 68 68 68 67 66 65 65 64 63 63 63 64 63
72 71 70 70 70 70 69 67 66 66 66 66 68 68 68 68 69 70 71 71 70 68 64 63 62 65 66 64 65 66 67 65 63 62 62 63 63 63 63 65 65 67 71 66 63 62 64 65 66 64 66 69 68 65 64 66 68 68 68 68 68 68 68 68 67 67 66 65 64 63 62 62 62 62
72 71 71 71 71 69 67 66 66 65 64 65 67 67 67 68 68 67 67 68 67 67 67 66 66 66 67 67 67 67 66 65 65 65 64 64 64 64 66 66 67 68 70 69 65 61 62 64 64 64 65 68 66 65 64 65 65 66 66 66 67 67 67 67 67 67 67 67 66 64 63 62 62 62
72 71 70 70 70 69 66 66 66 66 65 65 66 66 66 67 68 67 70 68 69 69 68 67 66 66 67 67 65 65 65 65 66 66 67 66 64 63 62 61 66 65 67 69 65 62 62 64 64 64 66 67 64 65 64 63 64 63 63 64 64 64 65 65 65 66 66 66 66 66 64 63 62 62
70 70 70 69 69 69 66 65 62 63 65 65 66 65 66 66 67 66 69 70 69 68 67 66 66 65 65 65 65 65 66 66 66 64 63 62 62 60 59 61 62 63 65 66 65 65 61 63 64 64 64 65 64 63 63 62 62 62 62 62 62 62 62 62 63 64 65 65 65 65 64 63 63 62
69 70 71 70 68 67 66 63 62 62 65 64 65 65 64 64 64 65 66 68 69 70 69 68 67 67 67 68 68 68 67 67 68 64 60 62 61 60 60 59 61 62 64 64 66 62 61 63 63 63 63 64 64 63 63 62 62 62 61 61 61 61 61 61 61 62 63 63 64 64 63 62 61 62
71 69 70 70 68 67 65 61 61 61 64 63 64 64 63 62 62 63 64 64 65 66 66 66 67 68 68 68 67 68 69 69 68 66 64 63 61 60 60 60 61 60 61 64 67 61 62 62 60 61 60 58 61 64 64 64 65 65 65 63 61 61 61 60 60 60 61 61 61 61 62 59 60 67
71 69 67 68 65 63 62 60 59 59 61 63 64 64 63 62 61 64 63 65 65 64 64 64 66 67 67 66 66 67 65 65 66 66 65 64 63 61 61 61 61 58 59 63 65 61 62 63 60 61 61 59 57 60 62 63 64 65 65 63 61 60 60 60 58 58 58 58 58 58 59 60 61 66
70 69 69 68 66 62 61 59 58 57 59 62 64 65 62 63 62 63 63 65 67 65 64 65 66 66 65 65 66 65 64 64 64 64 65 65 63 62 61 60 60 59 61 63 67 63 61 62 60 61 61 61 59 59 60 62 63 63 65 65 64 64 66 65 62 61 56 56 54 54 56 58 57 58
69 68 68 68 67 62 61 59 57 56 58 60 65 65 60 59 61 63 66 66 65 64 64 65 64 64 63 63 64 63 63 63 64 65 65 64 64 64 63 61 59 58 59 63 66 64 62 60 62 60 60 59 59 60 58 59 61 62 63 64 64 64 65 66 65 64 65 65 63 60 59 57 57 55
68 69 69 70 70 63 57 55 56 57 57 63 65 58 58 60 62 67 67 66 63 63 63 63 61 61 61 62 62 63 63 64 66 66 66 66 65 64 65 65 63 61 62 63 64 64 63 61 64 61 60 60 59 59 59 58 58 61 61 61 62 62 63 63 63 63 64 64 65 61 59 58 57 59
69 68 69 69 61 56 53 54 56 58 62 64 59 58 60 65 69 67 66 65 64 64 64 62 61 61 62 63 63 63 64 65 65 66 66 65 65 64 63 64 64 64 64 63 63 63 63 62 63 64 64 60 59 58 57 60 60 59 58 60 60 61 61 62 62 62 62 63 63 63 64 64 65 65
69 67 62 59 58 58 57 57 57 60 64 60 59 61 66 70 67 66 65 64 64 63 62 61 61 62 61 62 63 65 65 66 66 65 65 66 65 65 64 63 63 63 63 63 62 62 62 62 62 63 62 62 61 61 61 59 59 58 59 59 57 58 59 60 60 60 61 61 61 61 61 61 62 64
68 64 61 60 59 62 64 67 68 69 69 68 69 69 69 68 67 66 65 64 64 62 64 63 62 62 63 63 64 66 66 64 63 64 64 63 63 64 63 62 61 61 61 62 62 61 61 60 61 63 62 62 62 61 61 59 57 59 60 58 58 60 60 59 58 58 59 59 60 60 61 61 61 61
68 68 69 68 66 66 68 68 71 72 71 69 69 68 68 67 67 66 65 64 64 63 64 64 64 64 65 65 66 64 64 63 63 65 64 63 63 63 63 61 59 59 60 61 62 62 60 60 59 60 59 59 60 60 60 60 57 57 57 59 59 55 57 59 59 58 57 57 58 58 59 59 59 61
69 69 73 71 70 71 71 71 70 69 70 69 68 67 67 67 67 68 69 68 65 65 65 65 65 65 65 64 64 65 64 64 64 65 64 64 63 64 63 60 59 59 58 58 59 61 61 59 58 57 56 57 57 58 59 58 57 57 57 58 58 58 59 58 58 57 58 57 55 54 54 55 55 56
67 67 69 70 69 69 70 70 69 69 68 68 68 68 67 66 66 66 65 64 63 64 65 64 63 64 64 63 64 64 63 63 64 65 64 64 63 63 63 60 59 58 56 56 57 57 58 58 58 56 55 54 53 56 57 54 55 57 56 56 57 56 57 57 58 58 58 56 54 53 52 54 54 54
63 64 66 70 71 70 70 69 68 68 68 67 67 67 67 66 65 65 65 64 64 66 65 65 64 64 64 63 64 63 63 63 63 64 64 63 64 62 60 59 58 59 57 56 56 57 58 58 58 57 56 54 54 52 53 54 54 55 56 56 56 55 56 57 57 58 58 56 54 53 52 52 53 54
67 66 69 71 70 70 70 69 69 68 68 67 67 67 67 65 65 65 64 64 65 65 65 65 65 64 64 63 63 63 63 63 63 64 64 64 63 62 61 59 58 57 57 56 56 57 58 57 58 57 57 56 53 52 53 52 51 53 56 55 56 55 55 56 56 56 55 55 55 52 51 51 52 53
64 69 71 70 71 70 69 69 68 68 68 68 68 67 66 65 65 64 64 63 64 64 64 64 64 64 64 64 63 63 63 62 62 62 63 63 62 61 61 60 59 58 57 56 56 58 59 59 60 58 55 53 51 49 49 52 51 50 52 54 55 54 54 55 55 55 53 52 53 51 48 48 49 51
69 72 71 70 70 70 69 69 69 68 69 69 68 68 66 65 64 64 65 64 65 65 64 64 64 63 63 64 64 63 63 62 61 62 62 62 62 62 60 60 60 59 57 56 57 57 58 57 59 57 54 52 49 46 47 52 52 52 49 52 55 55 55 54 53 52 52 51 50 50 49 48 48 49
66 71 71 70 69 69 69 70 69 68 69 69 68 68 67 66 65 64 65 64 64 64 64 64 64 64 64 64 63 63 63 63 63 62 62 62 61 61 60 59 59 59 58 58 58 57 57 55 55 56 55 51 49 48 47 49 51 51 52 51 53 56 56 54 52 51 51 52 51 51 51 48 48 49
66 70 71 70 70 70 70 70 69 69 69 68 67 67 67 66 65 64 64 64 64 64 64 64 63 63 64 64 64 63 62 62 61 61 61 62 62 61 60 60 59 59 59 57 58 58 57 55 54 53 53 51 50 49 50 48 47 51 52 51 51 55 56 54 52 52 52 51 51 52 52 53 53 55
71 73 72 72 71 70 69 69 69 69 69 68 67 68 67 66 65 64 64 64 63 63 64 64 63 63 63 64 64 64 63 63 62 62 62 62 62 62 61 61 60 59 58 57 56 56 56 56 55 54 54 54 54 55 54 53 53 54 53 52 51 51 52 56 54 53 52 53 52 51 49 52 51 53
73 72 74 72 71 70 70 70 70 70 69 69 69 69 67 66 66 65 65 64 64 63 63 63 63 63 62 63 63 63 62 62 62 62 63 62 62 62 62 62 59 59 57 56 57 56 56 57 58 59 58 57 57 58 56 52 49 50 50 51 51 50 49 49 53 54 54 55 55 53 52 51 50 50
74 73 74 74 72 72 71 70 70 71 71 70 69 69 67 67 66 67 66 65 64 64 63 63 62 63 62 62 63 63 62 62 61 62 62 62 61 61 62 61 59 59 58 56 56 57 59 61 61 59 57 57 58 54 50 51 49 50 50 51 52 52 50 49 47 47 48 51 54 53 51 51 52 49
74 74 73 73 72 71 71 70 69 69 71 70 69 69 69 69 68 67 65 64 64 64 63 63 63 63 62 62 62 63 62 62 62 62 62 61 61 60 60 60 60 59 59 58 59 60 60 61 60 59 59 58 56 55 52 52 52 52 51 52 51 51 52 52 52 50 49 46 45 47 51 53 53 49
75 75 74 73 72 70 71 70 70 70 70 72 70 69 71 69 67 66 66 65 65 64 65 64 63 63 63 63 63 63 63 63 63 62 61 61 61 61 61 61 61 60 60 59 59 59 60 61 60 59 57 56 56 55 54 54 54 54 54 53 53 53 52 53 54 54 53 51 51 49 46 45 47 48
75 75 75 74 73 72 71 71 71 71 71 71 72 71 71 71 69 68 67 67 66 65 65 64 64 64 64 64 63 62 63 64 63 62 62 62 62 62 62 61 60 60 60 59 59 58 60 60 60 60 57 56 57 56 57 57 55 55 54 54 54 55 55 55 53 51 50 50 52 52 51 50 50 50
MSLP
1010.77 1010.89 1010.81 1010.69 1010.45 1010.17 1010.09 1009.93 1009.93 1010.17 1010.17 1010.09 1009.93 1010.01 1010.61 1011.17 1012.09 1012.77 1012.73 1012.17 1011.85 1010.21 1009.61 1010.09 1009.49 1008.73 1008.77 1008.93 1008.61 1008.65 1008.53 1008.77 1009.05 1009.25 1009.21 1009.29 1009.53 1009.85 1010.13 1010.29 1010.41 1010.77 1010.85 1010.73 1010.73 1010.93 1011.13 1011.29 1011.45 1011.81 1012.05 1012.33 1012.57 1012.69 1012.69 1012.77 1012.89 1013.05 1013.41 1013.57 1013.53 1013.69 1014.05 1014.45 1015.17 1015.57 1015.73 1016.17 1016.49 1016.49 1016.53 1016.57 1016.69 1016.89
1010.89 1011.05 1011.13 1010.89 1010.81 1010.45 1010.49 1010.41 1010.05 1009.93 1009.93 1009.89 1009.97 1010.13 1010.01 1010.37 1011.57 1012.13 1012.81 1012.49 1011.49 1011.13 1010.01 1009.73 1010.09 1009.09 1008.89 1008.81 1008.77 1008.61 1008.73 1008.73 1008.81 1008.85 1008.93 1009.13 1009.41 1009.69 1009.93 1010.05 1010.21 1010.37 1010.45 1010.53 1010.65 1010.81 1011.01 1011.17 1011.33 1011.61 1011.61 1011.69 1011.93 1012.05 1012.25 1012.29 1012.49 1012.57 1012.97 1013.41 1013.57 1013.81 1014.09 1014.69 1015.25 1015.69 1015.93 1015.89 1015.93 1016.05 1016.25 1016.37 1016.41 1016.53
1011.09 1011.33 1011.53 1011.25 1011.17 1010.77 1010.73 1010.45 1010.09 1009.81 1009.69 1009.57 1009.61 1009.85 1009.81 1010.01 1010.37 1011.21 1011.85 1012.77 1011.41 1010.73 1010.97 1010.01 1009.53 1009.53 1008.97 1008.77 1008.89 1008.77 1008.81 1008.85 1008.81 1008.93 1009.05 1009.21 1009.37 1009.73 1010.01 1010.05 1010.13 1010.21 1010.17 1010.21 1010.45 1010.57 1010.77 1010.93 1011.05 1011.09 1011.05 1011.13 1011.41 1011.65 1011.77 1012.01 1012.33 1012.69 1012.85 1013.09 1013.45 1013.93 1014.33 1014.77 1015.25 1015.65 1015.77 1015.61 1015.61 1015.73 1015.89 1016.05 1016.21 1016.29
1011.25 1011.53 1011.69 1011.53 1011.29 1010.89 1010.69 1010.45 1010.37 1010.25 1009.81 1009.61 1009.73 1009.77 1009.93 1010.09 1010.01 1010.41 1011.21 1011.93 1011.85 1010.57 1010.53 1010.17 1009.81 1009.29 1009.45 1009.29 1009.25 1009.17 1009.05 1008.89 1009.01 1009.29 1009.29 1009.33 1009.53 1009.65 1009.65 1009.77 1009.81 1009.93 1009.93 1009.89 1010.01 1010.29 1010.49 1010.73 1010.81 1010.85 1010.89 1010.97 1011.25 1011.49 1011.73 1011.85 1012.17 1012.45 1012.81 1012.93 1013.25 1013.61 1014.17 1014.41 1014.57 1015.01 1015.01 1014.89 1015.17 1015.29 1015.29 1015.45 1015.65 1015.89
1011.45 1011.73 1011.77 1011.61 1011.21 1010.69 1010.69 1010.77 1010.73 1010.49 1010.13 1009.89 1009.81 1009.65 1009.77 1009.93 1009.77 1010.25 1010.89 1011.37 1011.37 1010.65 1010.01 1010.21 1010.13 1009.57 1009.49 1009.77 1009.53 1009.57 1009.49 1009.41 1009.21 1009.37 1009.57 1009.61 1009.69 1009.69 1009.53 1009.53 1009.57 1009.53 1009.61 1009.65 1009.69 1009.93 1010.21 1010.37 1010.53 1010.57 1010.65 1010.85 1011.05 1011.29 1011.49 1011.69 1011.97 1012.49 1012.69 1012.85 1012.89 1013.09 1013.57 1013.81 1013.85 1014.21 1014.29 1014.21 1014.37 1014.53 1014.65 1014.81 1015.13 1015.45
1011.85 1011.89 1011.97 1011.77 1011.33 1010.85 1010.93 1010.89 1010.69 1010.49 1010.33 1010.17 1010.09 1010.17 1010.09 1010.49 1010.61 1010.25 1011.01 1011.69 1011.69 1011.65 1010.65 1010.61 1010.17 1010.17 1009.81 1010.33 1009.65 1010.01 1010.25 1010.13 1009.85 1009.89 1009.93 1009.93 1009.97 1009.97 1009.81 1009.53 1009.33 1009.45 1009.49 1009.61 1009.69 1009.77 1009.97 1010.13 1010.29 1010.45 1010.45 1010.57 1010.81 1011.01 1011.21 1011.41 1011.65 1012.09 1012.57 1012.61 1012.61 1012.73 1012.85 1013.13 1013.45 1013.57 1014.21 1014.37 1014.17 1014.21 1014.41 1014.57 1014.69 1014.89
1012.17 1012.25 1012.21 1011.93 1011.65 1011.29 1011.53 1011.45 1011.17 1011.21 1011.21 1010.69 1010.53 1010.57 1010.53 1010.89 1010.97 1010.97 1011.29 1011.85 1012.33 1012.29 1011.89 1011.01 1010.93 1010.69 1010.49 1010.69 1010.61 1010.25 1010.13 1010.09 1010.09 1010.25 1010.13 1010.09 1010.01 1009.89 1009.81 1009.69 1009.25 1009.05 1009.29 1009.33 1009.37 1009.45 1009.69 1009.89 1010.05 1010.21 1010.37 1010.45 1010.57 1010.81 1011.01 1011.25 1011.45 1011.73 1012.01 1012.21 1012.33 1012.45 1012.49 1012.65 1013.01 1013.33 1013.53 1013.41 1013.49 1013.89 1014.01 1014.05 1014.13 1014.33
1012.49 1012.61 1012.53 1012.29 1012.09 1012.13 1012.21 1012.09 1011.97 1011.77 1011.65 1011.45 1011.29 1011.29 1011.25 1011.29 1011.21 1011.13 1011.37 1011.65 1012.05 1012.29 1012.49 1011.81 1011.57 1011.21 1011.25 1011.09 1010.81 1010.69 1010.45 1010.41 1010.33 1010.13 1010.01 1009.97 1010.05 1009.97 1009.81 1009.65 1009.41 1009.05 1008.89 1008.77 1008.93 1009.25 1009.53 1009.85 1009.97 1010.05 1010.17 1010.33 1010.45 1010.65 1010.93 1011.13 1011.37 1011.57 1011.77 1012.01 1012.25 1012.33 1012.37 1012.45 1012.61 1012.73 1012.89 1013.09 1013.49 1013.65 1013.65 1013.69 1013.81 1014.01
1012.69 1012.77 1012.77 1012.41 1012.45 1012.57 1012.77 1012.65 1012.57 1012.33 1012.25 1012.05 1011.85 1011.93 1011.93 1012.05 1011.97 1011.93 1011.97 1011.93 1011.97 1012.33 1012.57 1012.29 1011.73 1011.45 1011.41 1011.21 1011.29 1011.21 1011.41 1011.09 1010.65 1010.37 1010.49 1010.57 1010.45 1010.21 1009.77 1009.41 1009.17 1009.09 1009.13 1009.21 1009.25 1009.37 1009.49 1009.65 1009.85 1010.01 1010.13 1010.21 1010.33 1010.53 1010.81 1011.09 1011.29 1011.45 1011.61 1011.85 1012.13 1012.25 1012.33 1012.41 1012.49 1012.65 1012.89 1013.09 1013.21 1013.37 1013.41 1013.49 1013.69 1013.81
1012.73 1012.85 1012.65 1012.57 1012.61 1012.85 1013.05 1012.93 1012.77 1012.69 1012.69 1012.61 1012.57 1012.49 1012.57 1012.53 1012.49 1012.45 1012.29 1012.21 1012.25 1012.29 1012.37 1012.41 1012.33 1012.01 1012.17 1012.21 1011.97 1011.69 1011.65 1011.77 1011.65 1011.33 1010.93 1010.69 1010.61 1010.53 1010.41 1010.09 1009.41 1009.13 1009.29 1009.45 1009.61 1009.73 1009.81 1009.89 1009.97 1010.05 1010.17 1010.17 1010.25 1010.41 1010.69 1010.97 1011.21 1011.37 1011.53 1011.73 1011.97 1012.13 1012.25 1012.37 1012.45 1012.61 1012.85 1013.09 1013.21 1013.21 1013.29 1013.49 1014.25 1014.17
1012.85 1012.97 1012.89 1012.93 1012.93 1013.17 1013.29 1013.33 1013.29 1013.21 1013.05 1012.97 1012.93 1013.01 1012.93 1012.85 1012.89 1012.85 1012.77 1012.61 1012.65 1012.65 1012.69 1012.81 1013.13 1013.25 1012.69 1012.57 1012.57 1011.93 1011.69 1011.61 1011.69 1011.93 1011.77 1011.53 1011.01 1010.93 1010.85 1010.69 1010.01 1009.57 1009.53 1009.21 1009.13 1009.21 1009.41 1009.57 1009.81 1009.93 1010.09 1010.21 1010.29 1010.41 1010.53 1010.73 1011.01 1011.25 1011.49 1011.65 1011.77 1011.97 1012.17 1012.29 1012.45 1012.65 1012.81 1012.97 1013.13 1013.25 1013.37 1013.53 1013.69 1014.13
1013.17 1013.13 1013.05 1012.93 1013.13 1013.29 1013.41 1013.41 1013.45 1013.37 1013.45 1013.33 1013.33 1013.17 1013.13 1013.13 1013.09 1013.13 1013.01 1013.01 1013.01 1013.01 1013.17 1013.21 1013.29 1013.09 1012.97 1012.65 1012.37 1012.13 1011.93 1012.05 1011.89 1011.73 1011.97 1012.21 1011.89 1011.49 1011.17 1010.93 1010.85 1010.17 1009.93 1009.89 1009.49 1009.33 1009.45 1009.69 1009.89 1010.05 1010.21 1010.29 1010.37 1010.49 1010.53 1010.61 1010.81 1011.05 1011.37 1011.57 1011.65 1011.77 1012.05 1012.25 1012.45 1012.69 1012.85 1013.01 1013.09 1013.17 1013.29 1013.41 1013.53 1013.81
1013.21 1013.25 1013.13 1013.25 1013.41 1013.37 1013.37 1013.29 1013.53 1013.45 1013.37 1013.49 1013.57 1013.41 1013.29 1013.29 1013.33 1013.33 1013.25 1013.25 1013.17 1013.13 1013.09 1013.13 1013.01 1013.01 1013.01 1013.01 1012.85 1012.61 1012.53 1012.61 1012.57 1012.09 1011.97 1012.09 1011.81 1011.61 1011.49 1011.13 1010.77 1010.69 1010.61 1010.17 1009.89 1009.89 1010.05 1010.05 1010.05 1010.13 1010.33 1010.21 1010.33 1010.45 1010.41 1010.45 1010.61 1010.89 1011.17 1011.41 1011.53 1011.65 1011.93 1012.21 1012.41 1012.61 1012.81 1012.97 1013.05 1013.13 1013.25 1013.41 1013.53 1013.69
1013.33 1013.41 1013.49 1013.33 1013.33 1013.49 1013.49 1013.41 1013.37 1013.37 1013.37 1013.29 1013.33 1013.29 1013.33 1013.29 1013.33 1013.37 1013.33 1013.33 1013.29 1013.29 1013.41 1013.45 1013.41 1013.29 1013.25 1013.29 1013.57 1013.45 1012.81 1012.29 1012.09 1012.13 1012.17 1012.29 1011.97 1011.65 1011.61 1011.21 1011.01 1010.73 1010.69 1010.81 1010.85 1010.57 1010.33 1010.53 1010.53 1010.37 1010.21 1009.97 1010.09 1010.25 1010.37 1010.45 1010.41 1010.61 1010.93 1011.21 1011.41 1011.57 1011.81 1012.09 1012.29 1012.45 1012.69 1012.93 1013.05 1013.17 1013.29 1013.41 1013.53 1013.61
1013.69 1013.65 1013.61 1013.57 1013.49 1013.69 1013.77 1013.69 1013.57 1013.45 1013.37 1013.25 1013.13 1013.01 1012.89 1013.01 1013.13 1013.37 1013.45 1013.41 1013.33 1013.37 1013.45 1013.33 1013.29 1013.33 1013.33 1013.25 1013.09 1013.09 1012.65 1012.29 1012.21 1012.21 1012.13 1012.17 1012.13 1012.17 1012.25 1012.33 1011.37 1010.77 1010.97 1011.25 1011.25 1010.89 1010.25 1010.29 1010.61 1010.33 1010.45 1010.37 1010.33 1010.25 1010.37 1010.33 1010.33 1010.57 1010.89 1011.17 1011.41 1011.53 1011.65 1011.97 1012.17 1012.29 1012.57 1012.85 1013.05 1013.17 1013.33 1013.45 1013.57 1013.65
1013.81 1013.97 1013.89 1013.81 1013.65 1013.81 1013.89 1013.89 1013.89 1013.77 1013.53 1013.33 1013.09 1012.97 1012.93 1012.97 1012.73 1012.73 1013.09 1013.45 1013.41 1013.45 1013.65 1013.65 1013.49 1013.33 1013.25 1013.05 1012.81 1012.77 1012.65 1012.53 1012.29 1012.09 1012.09 1012.05 1012.17 1012.37 1012.33 1012.17 1012.21 1011.33 1011.01 1011.45 1011.53 1011.37 1010.53 1010.25 1010.37 1010.77 1010.89 1010.73 1010.57 1010.61 1010.57 1010.45 1010.49 1010.65 1010.89 1011.13 1011.41 1011.65 1011.73 1011.93 1012.13 1012.17 1012.41 1012.69 1012.93 1013.13 1013.29 1013.45 1013.57 1013.69
1014.09 1014.09 1014.09 1014.01 1013.93 1013.97 1013.93 1014.13 1014.09 1014.01 1013.85 1013.53 1013.21 1013.01 1012.97 1012.89 1012.85 1012.77 1012.65 1012.53 1012.81 1013.09 1013.37 1013.45 1013.33 1013.25 1013.05 1012.93 1012.81 1012.77 1012.65 1012.33 1012.41 1012.25 1012.21 1012.13 1012.09 1012.05 1012.21 1012.13 1011.89 1011.49 1011.13 1011.41 1011.61 1011.69 1011.13 1010.77 1010.85 1011.33 1011.09 1010.93 1010.69 1010.69 1010.81 1010.81 1010.73 1010.81 1011.01 1011.29 1011.41 1011.65 1011.89 1011.97 1012.17 1012.21 1012.33 1012.57 1012.81 1013.05 1013.25 1013.45 1013.61 1013.73
1014.09 1014.17 1014.21 1014.21 1014.17 1014.13 1014.21 1014.33 1014.33 1014.17 1014.05 1013.77 1013.41 1013.21 1013.09 1013.01 1012.93 1012.77 1012.57 1012.49 1012.49 1012.57 1012.97 1013.13 1013.13 1012.69 1012.53 1012.73 1012.53 1012.41 1012.25 1012.33 1012.41 1012.33 1012.29 1012.17 1012.17 1012.13 1012.09 1011.73 1011.61 1011.25 1010.97 1011.37 1011.65 1011.85 1011.61 1011.25 1011.25 1011.37 1011.25 1011.01 1011.17 1011.29 1011.21 1010.97 1010.97 1011.09 1011.21 1011.37 1011.49 1011.57 1011.85 1012.01 1012.17 1012.25 1012.29 1012.49 1012.73 1013.01 1013.21 1013.41 1013.61 1013.77
1014.05 1014.17 1014.21 1014.21 1014.17 1014.25 1014.45 1014.49 1014.41 1014.37 1014.17 1013.89 1013.53 1013.29 1013.21 1013.05 1012.93 1012.89 1013.01 1012.73 1012.69 1012.57 1012.57 1012.61 1012.57 1012.41 1012.21 1012.17 1012.17 1012.13 1012.09 1012.21 1012.13 1012.01 1012.01 1011.93 1011.97 1011.85 1011.53 1011.33 1011.09 1010.97 1010.69 1010.93 1011.45 1012.17 1011.81 1011.21 1011.45 1011.37 1011.37 1011.21 1011.41 1011.49 1011.45 1011.29 1011.29 1011.37 1011.49 1011.57 1011.61 1011.69 1011.97 1012.17 1012.29 1012.37 1012.41 1012.49 1012.69 1012.97 1013.17 1013.33 1013.53 1013.73
1014.01 1014.13 1014.29 1014.37 1014.29 1014.37 1014.61 1014.57 1014.49 1014.41 1014.21 1013.93 1013.65 1013.57 1013.37 1013.13 1012.97 1012.93 1012.69 1012.61 1012.53 1012.45 1012.41 1012.41 1012.37 1012.21 1012.05 1011.97 1012.01 1012.05 1012.09 1012.05 1011.97 1011.89 1011.65 1011.65 1011.77 1011.85 1011.85 1011.77 1011.17 1011.17 1010.81 1010.81 1011.29 1011.81 1011.85 1011.41 1011.53 1011.61 1011.45 1011.37 1011.73 1011.77 1011.85 1011.81 1011.61 1011.65 1011.69 1011.77 1011.89 1012.09 1012.25 1012.37 1012.49 1012.61 1012.65 1012.69 1012.73 1012.89 1013.13 1013.33 1013.53 1013.69
1014.21 1014.33 1014.45 1014.49 1014.53 1014.49 1014.69 1014.69 1014.61 1014.49 1014.29 1014.05 1013.89 1013.81 1013.61 1013.37 1013.17 1013.13 1012.81 1012.61 1012.49 1012.37 1012.21 1012.13 1012.01 1011.85 1011.85 1011.81 1011.81 1011.81 1011.77 1011.81 1011.85 1011.97 1012.01 1012.05 1011.93 1012.09 1012.17 1011.85 1011.65 1011.49 1011.17 1011.13 1011.25 1011.49 1011.85 1011.69 1011.65 1011.73 1011.69 1011.69 1011.89 1012.05 1012.13 1012.17 1012.01 1011.93 1012.01 1012.09 1012.25 1012.37 1012.49 1012.61 1012.73 1012.85 1012.93 1012.97 1013.01 1013.09 1013.25 1013.45 1013.65 1013.85
1014.17 1014.29 1014.45 1014.53 1014.65 1014.73 1014.77 1014.77 1014.69 1014.61 1014.41 1014.33 1014.13 1013.93 1013.77 1013.69 1013.57 1013.37 1013.09 1012.81 1012.53 1012.25 1012.05 1011.93 1011.81 1011.73 1011.73 1011.65 1011.57 1011.53 1011.53 1011.49 1011.45 1011.85 1012.25 1012.05 1012.01 1012.13 1012.01 1012.05 1011.73 1011.45 1011.29 1011.33 1011.25 1011.73 1011.69 1011.73 1011.69 1011.89 1011.89 1011.89 1012.01 1012.21 1012.33 1012.41 1012.33 1012.21 1012.29 1012.37 1012.41 1012.53 1012.65 1012.81 1012.97 1013.09 1013.17 1013.21 1013.25 1013.29 1013.37 1013.49 1013.65 1013.89
1014.05 1014.37 1014.49 1014.61 1014.73 1014.77 1014.89 1014.89 1014.77 1014.69 1014.53 1014.49 1014.29 1014.05 1013.97 1013.93 1013.89 1013.65 1013.45 1013.25 1012.93 1012.49 1012.25 1012.13 1011.93 1011.73 1011.69 1011.65 1011.69 1011.57 1011.41 1011.29 1011.37 1011.61 1011.85 1011.85 1012.01 1012.13 1012.09 1011.97 1011.73 1011.61 1011.73 1011.45 1011.17 1011.73 1011.73 1011.89 1012.29 1012.13 1012.29 1012.57 1012.33 1012.21 1012.37 1012.33 1012.37 1012.45 1012.37 1012.49 1012.61 1012.65 1012.73 1012.89 1013.05 1013.21 1013.29 1013.41 1013.49 1013.57 1013.61 1013.65 1013.61 1013.69
1014.17 1014.37 1014.65 1014.69 1014.81 1014.89 1014.89 1014.89 1014.81 1014.69 1014.53 1014.53 1014.37 1014.09 1014.17 1014.21 1014.13 1013.69 1013.53 1013.25 1013.01 1012.85 1012.61 1012.37 1012.05 1011.93 1011.85 1011.89 1011.81 1011.69 1011.65 1011.57 1011.45 1011.57 1011.69 1011.81 1011.89 1012.01 1011.93 1011.77 1011.77 1012.05 1012.13 1011.57 1011.25 1011.73 1011.81 1011.77 1012.09 1012.01 1012.05 1012.33 1012.73 1012.61 1012.57 1012.57 1012.45 1012.49 1012.57 1012.73 1012.97 1013.05 1013.01 1013.13 1013.33 1013.41 1013.45 1013.53 1013.61 1013.69 1013.73 1013.81 1013.81 1013.69
1014.49 1014.57 1014.57 1014.65 1014.77 1014.85 1014.85 1014.85 1014.77 1014.65 1014.49 1014.45 1014.33 1014.17 1014.33 1014.21 1014.01 1013.77 1013.57 1013.17 1012.97 1012.93 1012.77 1012.45 1012.13 1012.01 1011.97 1012.01 1011.97 1011.97 1011.97 1011.97 1011.89 1011.89 1011.81 1011.81 1011.89 1012.01 1012.05 1012.05 1012.05 1012.17 1012.05 1011.69 1011.33 1011.49 1011.77 1011.73 1011.97 1012.09 1011.97 1012.21 1012.49 1012.73 1012.89 1012.77 1012.81 1012.81 1012.81 1012.81 1012.97 1013.05 1013.01 1013.17 1013.41 1013.65 1013.69 1013.69 1013.73 1013.77 1013.85 1013.85 1013.93 1013.85
1014.69 1014.77 1014.65 1014.65 1014.65 1014.65 1014.73 1014.77 1014.69 1014.61 1014.49 1014.37 1014.25 1014.13 1014.09 1013.97 1013.81 1013.61 1013.33 1013.25 1013.25 1013.05 1012.85 1012.57 1012.41 1012.29 1012.25 1012.29 1012.21 1012.21 1012.17 1012.09 1012.01 1011.93 1011.97 1012.05 1011.97 1012.05 1012.09 1012.21 1012.33 1012.37 1012.41 1011.89 1011.53 1011.53 1011.65 1011.77 1011.65 1011.85 1012.09 1012.45 1012.85 1012.53 1012.93 1013.17 1013.21 1013.17 1013.17 1013.17 1013.21 1013.29 1013.25 1013.33 1013.45 1013.57 1013.57 1013.57 1013.61 1013.73 1013.81 1013.89 1013.85 1013.77
1014.89 1014.69 1014.65 1014.57 1014.53 1014.61 1014.65 1014.69 1014.61 1014.53 1014.45 1014.29 1014.13 1014.09 1013.93 1013.77 1013.57 1013.41 1013.33 1013.29 1013.33 1013.17 1013.01 1012.97 1012.89 1012.85 1012.81 1012.69 1012.49 1012.37 1012.37 1012.17 1012.01 1012.01 1012.09 1012.05 1012.09 1012.17 1012.17 1012.17 1012.21 1012.37 1012.33 1012.01 1011.65 1011.45 1011.41 1011.53 1011.45 1011.65 1011.97 1012.17 1012.49 1012.81 1012.93 1013.33 1013.61 1013.49 1013.53 1013.65 1013.69 1013.69 1013.65 1013.65 1013.77 1013.85 1013.81 1013.73 1013.65 1013.61 1013.69 1013.81 1013.81 1013.73
1014.77 1014.85 1014.69 1014.65 1014.61 1014.57 1014.57 1014.53 1014.49 1014.41 1014.33 1014.25 1014.09 1014.01 1013.85 1013.53 1013.37 1013.45 1013.45 1013.45 1013.41 1013.29 1013.21 1013.25 1013.29 1013.21 1012.97 1012.73 1012.53 1012.53 1012.37 1012.29 1012.25 1012.21 1012.25 1012.29 1012.29 1012.37 1012.41 1012.45 1012.41 1012.37 1012.29 1012.17 1012.01 1011.77 1011.61 1011.69 1011.65 1011.49 1011.57 1012.05 1012.37 1012.77 1013.21 1013.21 1013.49 1013.73 1014.05 1014.05 1014.05 1014.09 1014.05 1013.97 1014.01 1014.01 1013.97 1013.85 1013.85 1013.89 1013.89 1013.93 1013.81 1013.69
1014.69 1014.65 1014.61 1014.61 1014.57 1014.45 1014.41 1014.37 1014.29 1014.25 1014.09 1014.09 1014.05 1013.89 1013.69 1013.49 1013.53 1013.53 1013.57 1013.57 1013.41 1013.41 1013.41 1013.45 1013.45 1013.37 1013.25 1013.05 1012.69 1012.57 1012.49 1012.37 1012.29 1012.33 1012.33 1012.29 1012.29 1012.37 1012.49 1012.61 1012.73 1012.69 1012.61 1012.53 1012.41 1012.21 1012.01 1011.81 1011.73 1011.61 1011.81 1012.01 1012.21 1012.53 1012.77 1013.37 1013.57 1013.93 1013.93 1014.13 1014.45 1014.45 1014.29 1014.21 1014.17 1014.21 1014.17 1014.13 1014.21 1014.33 1014.41 1014.41 1014.25 1014.05
1014.53 1014.53 1014.53 1014.49 1014.33 1014.25 1014.13 1014.05 1014.05 1013.89 1013.77 1013.81 1013.77 1013.81 1013.73 1013.69 1013.69 1013.61 1013.65 1013.65 1013.57 1013.61 1013.41 1013.49 1013.53 1013.45 1013.21 1013.01 1012.85 1012.69 1012.61 1012.57 1012.65 1012.57 1012.57 1012.57 1012.61 1012.53 1012.61 1012.77 1012.93 1013.01 1013.05 1012.97 1012.77 1012.61 1012.37 1012.21 1012.05 1011.97 1012.17 1012.37 1012.41 1012.73 1013.05 1013.41 1013.81 1013.85 1013.93 1014.25 1014.45 1014.41 1014.45 1014.45 1014.45 1014.49 1014.53 1014.57 1014.57 1014.61 1014.65 1014.57 1014.57 1014.45
1014.53 1014.41 1014.37 1014.21 1014.05 1013.97 1013.89 1013.93 1013.89 1013.69 1013.69 1013.73 1013.77 1013.81 1013.77 1013.81 1013.77 1013.65 1013.65 1013.69 1013.73 1013.65 1013.57 1013.49 1013.45 1013.29 1013.13 1012.97 1012.89 1012.97 1012.97 1012.97 1012.85 1012.65 1012.65 1012.73 1012.77 1012.73 1012.81 1012.93 1013.17 1013.37 1013.49 1013.41 1013.25 1013.05 1012.89 1012.81 1012.65 1012.49 1012.65 1012.93 1013.01 1013.29 1013.49 1013.65 1014.13 1014.41 1014.45 1014.29 1014.29 1014.69 1014.77 1014.65 1014.69 1014.77 1014.85 1014.89 1014.93 1014.97 1014.93 1014.93 1014.93 1014.81
1014.49 1014.33 1014.01 1013.85 1013.89 1013.81 1013.77 1013.73 1013.73 1013.73 1013.73 1013.73 1013.81 1013.93 1013.89 1013.93 1013.89 1013.77 1013.65 1013.57 1013.61 1013.57 1013.45 1013.37 1013.33 1013.29 1013.21 1013.25 1013.21 1013.17 1013.25 1013.21 1013.09 1012.89 1012.81 1012.85 1012.89 1012.81 1012.89 1013.13 1013.45 1013.57 1013.85 1013.89 1013.73 1013.61 1013.41 1013.41 1013.37 1013.37 1013.53 1013.69 1013.81 1013.97 1013.97 1014.13 1014.45 1014.57 1014.65 1014.65 1014.65 1014.73 1014.69 1014.81 1014.89 1014.93 1014.97 1015.09 1015.29 1015.45 1015.53 1015.57 1015.57 1015.37
1014.77 1014.57 1014.21 1013.85 1013.89 1013.97 1013.97 1014.01 1013.97 1013.89 1013.89 1013.85 1013.81 1013.97 1014.01 1014.01 1014.05 1014.01 1013.93 1014.05 1013.89 1013.65 1013.49 1013.49 1013.45 1013.41 1013.37 1013.37 1013.29 1013.37 1013.53 1013.49 1013.33 1013.05 1013.01 1012.97 1013.05 1013.09 1013.17 1013.45 1013.65 1013.89 1014.17 1014.33 1014.33 1014.29 1014.17 1014.13 1014.05 1014.05 1014.21 1014.45 1014.65 1014.53 1014.37 1014.77 1014.93 1014.81 1014.97 1015.01 1014.93 1015.01 1015.01 1015.01 1014.97 1015.09 1015.13 1015.33 1015.65 1015.77 1015.81 1015.89 1015.97 1015.89
1014.97 1014.81 1014.57 1013.85 1013.85 1013.93 1013.97 1014.09 1014.13 1014.17 1014.05 1014.05 1014.01 1013.93 1014.01 1014.09 1014.21 1014.25 1014.17 1014.13 1014.01 1013.73 1013.65 1013.53 1013.49 1013.49 1013.49 1013.53 1013.49 1013.57 1013.65 1013.57 1013.49 1013.29 1013.17 1013.21 1013.13 1013.41 1013.69 1013.89 1014.05 1014.13 1014.33 1014.61 1014.57 1014.57 1014.49 1014.49 1014.49 1014.53 1014.61 1014.85 1015.05 1015.29 1015.29 1015.17 1015.25 1015.25 1015.21 1015.17 1015.21 1015.33 1015.29 1015.17 1015.17 1015.09 1015.09 1015.37 1015.57 1015.73 1015.93 1016.05 1016.17 1016.21
1014.77 1014.65 1014.29 1013.89 1013.89 1013.89 1013.93 1014.13 1014.21 1014.17 1014.09 1014.05 1014.01 1013.93 1013.97 1014.13 1014.25 1014.37 1014.37 1014.33 1014.13 1013.93 1013.85 1013.73 1013.61 1013.53 1013.53 1013.61 1013.61 1013.69 1013.69 1013.69 1013.61 1013.45 1013.29 1013.25 1013.33 1013.49 1013.69 1014.01 1014.29 1014.45 1014.53 1014.57 1014.61 1014.57 1014.53 1014.57 1014.53 1014.65 1014.69 1014.81 1015.21 1015.77 1015.89 1015.97 1015.93 1015.65 1015.37 1015.45 1015.41 1015.53 1015.57 1015.49 1015.45 1015.49 1015.57 1015.61 1015.65 1016.05 1016.37 1016.45 1016.49 1016.41
1014.77 1014.05 1013.81 1014.05 1013.93 1013.93 1014.05 1014.13 1014.21 1014.17 1014.09 1013.97 1013.97 1013.97 1014.13 1014.33 1014.29 1014.41 1014.53 1014.37 1014.25 1014.13 1014.05 1013.93 1013.85 1013.73 1013.65 1013.65 1013.65 1013.65 1013.69 1013.77 1013.77 1013.61 1013.57 1013.53 1013.61 1013.73 1013.85 1014.09 1014.33 1014.57 1014.65 1014.73 1014.73 1014.53 1014.29 1014.25 1014.17 1014.29 1014.61 1015.05 1015.45 1015.97 1016.41 1016.45 1016.33 1016.37 1015.81 1015.69 1015.65 1015.73 1015.81 1015.81 1015.85 1015.89 1016.01 1016.17 1016.25 1016.45 1016.89 1016.89 1016.85 1016.73
1014.17 1013.53 1013.61 1013.81 1013.93 1013.97 1014.17 1014.01 1014.13 1014.21 1014.09 1013.97 1013.97 1013.97 1014.13 1014.29 1014.37 1014.37 1014.37 1014.25 1014.25 1014.25 1014.17 1014.09 1014.05 1013.97 1013.85 1013.77 1013.69 1013.69 1013.73 1013.77 1013.85 1013.69 1013.69 1013.69 1013.65 1013.81 1014.09 1014.25 1014.37 1014.57 1014.81 1014.89 1014.81 1014.73 1014.61 1014.53 1014.29 1014.41 1014.77 1015.33 1015.89 1016.45 1016.73 1016.41 1016.37 1016.45 1016.49 1016.01 1015.77 1015.81 1015.93 1016.05 1016.17 1016.41 1016.53 1016.57 1016.77 1016.85 1017.13 1017.05 1017.13 1017.17
1014.33 1013.61 1013.53 1013.69 1013.93 1013.97 1013.97 1013.97 1014.09 1014.17 1014.09 1013.97 1014.09 1014.17 1014.21 1014.25 1014.33 1014.29 1014.25 1014.33 1014.37 1014.33 1014.29 1014.25 1014.21 1014.09 1014.01 1013.89 1013.89 1013.89 1013.81 1013.77 1013.73 1013.77 1013.73 1013.73 1013.89 1014.01 1014.13 1014.33 1014.45 1014.61 1014.85 1014.93 1014.89 1014.93 1014.85 1014.89 1014.89 1014.77 1014.73 1015.29 1015.81 1016.21 1016.53 1016.61 1016.57 1016.61 1016.65 1016.41 1016.01 1015.85 1015.89 1016.13 1016.37 1016.53 1016.65 1016.61 1016.85 1017.13 1017.13 1017.21 1017.37 1017.37
1014.25 1013.65 1013.41 1013.57 1013.69 1013.77 1013.89 1014.01 1014.09 1014.01 1014.01 1014.09 1014.21 1014.33 1014.29 1014.21 1014.29 1014.33 1014.29 1014.41 1014.45 1014.41 1014.41 1014.37 1014.37 1014.25 1014.13 1014.05 1013.97 1014.01 1014.01 1014.01 1014.05 1014.01 1013.93 1013.89 1013.97 1014.09 1014.25 1014.37 1014.57 1014.69 1014.81 1015.09 1015.17 1015.13 1015.09 1015.21 1015.29 1015.41 1015.45 1015.61 1015.97 1016.41 1016.61 1016.97 1017.29 1017.01 1016.77 1016.57 1016.41 1016.01 1016.01 1016.13 1016.45 1016.57 1016.73 1016.97 1017.13 1017.13 1017.17 1017.17 1017.17 1017.17
1013.53 1013.09 1013.17 1013.25 1013.41 1013.53 1013.77 1013.89 1013.81 1013.77 1013.89 1014.01 1014.09 1014.05 1014.01 1014.05 1014.21 1014.29 1014.29 1014.37 1014.45 1014.49 1014.45 1014.49 1014.49 1014.41 1014.33 1014.21 1014.13 1014.05 1014.05 1014.09 1014.13 1014.13 1014.09 1014.09 1014.09 1014.13 1014.25 1014.41 1014.65 1014.81 1014.97 1015.21 1015.33 1015.41 1015.37 1015.45 1015.57 1015.69 1015.81 1015.89 1016.05 1016.25 1016.37 1016.53 1016.73 1016.77 1016.77 1016.77 1016.69 1016.57 1016.41 1016.09 1016.25 1016.45 1016.73 1016.85 1016.97 1017.09 1017.29 1017.25 1017.33 1017.29
1012.93 1013.09 1012.97 1013.01 1013.17 1013.45 1013.61 1013.65 1013.61 1013.53 1013.57 1013.69 1013.81 1013.89 1013.97 1013.97 1014.05 1014.25 1014.29 1014.29 1014.33 1014.41 1014.53 1014.57 1014.53 1014.49 1014.53 1014.45 1014.29 1014.25 1014.29 1014.25 1014.17 1014.17 1014.17 1014.21 1014.29 1014.29 1014.37 1014.49 1014.73 1014.85 1015.05 1015.29 1015.33 1015.45 1015.61 1015.61 1015.57 1015.61 1015.65 1015.85 1015.93 1015.93 1016.01 1016.41 1016.93 1017.09 1017.17 1017.13 1016.97 1016.77 1016.57 1016.45 1016.41 1016.33 1016.41 1016.41 1016.45 1016.65 1016.89 1017.17 1017.37 1017.49
1012.81 1012.89 1012.77 1012.77 1013.05 1013.17 1013.25 1013.53 1013.57 1013.37 1013.29 1013.45 1013.53 1013.61 1013.89 1013.97 1014.01 1014.01 1014.21 1014.25 1014.29 1014.37 1014.45 1014.53 1014.57 1014.57 1014.57 1014.53 1014.45 1014.37 1014.37 1014.33 1014.33 1014.33 1014.37 1014.41 1014.45 1014.49 1014.49 1014.65 1014.85 1014.97 1015.05 1015.29 1015.41 1015.45 1015.37 1015.37 1015.45 1015.65 1015.85 1015.85 1015.81 1016.09 1016.61 1016.69 1017.01 1017.25 1017.29 1017.21 1017.17 1017.13 1016.93 1016.85 1016.81 1016.81 1016.81 1016.57 1016.45 1016.77 1017.05 1017.21 1017.21 1017.69
1012.57 1012.73 1012.73 1012.73 1012.89 1013.05 1013.21 1013.41 1013.49 1013.37 1013.09 1013.13 1013.29 1013.25 1013.41 1013.57 1013.65 1013.89 1014.17 1014.29 1014.29 1014.37 1014.41 1014.45 1014.45 1014.53 1014.61 1014.57 1014.49 1014.45 1014.45 1014.41 1014.37 1014.41 1014.49 1014.49 1014.57 1014.69 1014.77 1014.81 1014.89 1015.01 1015.09 1015.25 1015.25 1015.21 1015.21 1015.21 1015.29 1015.41 1015.53 1015.65 1015.97 1016.09 1016.53 1016.65 1016.73 1016.93 1017.05 1017.13 1017.29 1017.29 1017.21 1017.09 1016.97 1016.97 1016.97 1017.01 1017.01 1016.97 1016.81 1016.69 1016.77 1017.25
1012.37 1012.45 1012.45 1012.53 1012.77 1013.01 1013.17 1013.25 1013.21 1013.13 1013.05 1012.89 1013.01 1013.01 1013.01 1013.25 1013.61 1013.81 1013.93 1014.13 1014.25 1014.33 1014.29 1014.33 1014.41 1014.41 1014.45 1014.49 1014.49 1014.49 1014.45 1014.49 1014.49 1014.57 1014.65 1014.65 1014.57 1014.65 1014.77 1014.81 1014.85 1014.97 1015.01 1015.13 1015.25 1015.21 1015.17 1015.21 1015.33 1015.49 1015.69 1015.89 1015.97 1016.05 1016.21 1016.17 1016.33 1016.49 1016.65 1016.77 1016.89 1016.93 1017.09 1017.09 1017.05 1017.05 1017.05 1017.13 1017.17 1017.17 1017.05 1016.77 1016.57 1016.49
1012.17 1012.29 1012.29 1012.37 1012.53 1012.77 1012.97 1012.97 1013.09 1012.97 1012.85 1012.77 1012.65 1012.73 1012.77 1012.77 1013.13 1013.45 1013.77 1013.85 1014.05 1014.21 1014.25 1014.25 1014.29 1014.33 1014.37 1014.41 1014.45 1014.57 1014.53 1014.45 1014.45 1014.49 1014.45 1014.49 1014.53 1014.57 1014.69 1014.73 1014.81 1014.81 1015.01 1015.05 1015.13 1015.21 1015.17 1015.21 1015.29 1015.45 1015.73 1015.93 1015.93 1015.89 1015.85 1015.85 1016.09 1016.25 1016.41 1016.45 1016.53 1016.53 1016.65 1016.77 1017.05 1017.41 1017.57 1017.65 1017.57 1017.45 1017.33 1017.13 1016.97 1017.05
Wind_Speed
5 6 7 6 7 7 6 6 4 2 2 5 4 5 3 4 3 4 7 4 6 9 11 2 3 2 2 2 2 3 1 9 10 7 6 6 6 11 14 15 15 18 20 20 20 20 20 19 21 21 22 23 21 21 24 24 26 27 25 26 24 23 25 24 18 17 18 17 18 22 25 25 24 22
4 5 7 7 7 7 6 6 5 3 4 4 3 4 4 5 2 2 2 4 3 7 8 5 1 1 3 1 3 3 2 4 3 2 2 2 5 11 14 14 13 13 15 16 15 17 17 18 18 18 21 23 26 27 27 28 26 27 25 24 24 25 22 20 17 20 20 20 24 23 22 23 23 22
4 5 5 6 6 6 6 6 5 5 5 4 2 1 4 3 2 5 2 1 1 3 6 7 7 4 3 2 1 4 2 2 1 2 0 1 9 11 9 12 13 12 14 14 16 16 16 16 17 18 20 23 24 25 25 24 23 23 24 24 24 22 21 16 17 19 23 24 24 24 20 19 20 21
4 6 6 5 4 4 4 5 7 6 7 5 4 4 4 3 4 4 3 3 4 1 4 6 7 10 8 9 4 1 4 2 4 11 6 3 8 7 7 16 15 16 15 17 13 14 15 16 17 19 20 21 21 21 22 22 21 21 23 25 23 21 18 16 20 19 24 25 22 22 22 22 22 22
6 5 4 5 6 5 5 6 6 7 7 5 6 4 3 3 2 1 2 1 2 2 3 4 5 5 8 7 7 7 4 4 4 6 4 6 7 7 6 3 16 18 19 18 18 15 15 15 16 17 18 19 19 20 19 19 18 16 18 19 21 18 15 21 23 24 26 26 26 27 26 24 23 24
7 6 5 7 9 7 7 7 8 8 8 8 8 9 8 10 10 7 8 9 7 5 3 5 6 6 4 6 6 5 7 7 7 6 6 5 4 5 5 8 4 19 17 16 16 15 14 14 14 14 15 16 16 16 17 15 13 13 17 20 18 18 18 18 19 22 22 24 29 29 26 24 25 26
6 7 6 7 8 8 10 10 9 11 13 11 8 9 9 9 8 9 8 6 7 8 7 6 6 5 5 6 8 9 7 4 4 3 4 4 5 5 5 5 8 10 17 18 18 18 16 16 16 15 14 13 11 11 10 9 8 8 7 10 11 11 12 14 19 22 27 31 29 27 25 26 26 25
6 7 7 8 9 11 9 9 10 10 11 10 9 10 9 8 10 9 9 6 5 4 6 6 6 6 7 5 6 9 10 8 6 4 2 3 6 6 6 6 8 6 19 22 18 14 12 13 14 15 15 12 10 8 6 6 6 6 7 7 8 8 8 10 14 19 22 24 24 23 22 22 24 23
6 6 6 6 8 8 9 9 9 10 11 11 9 9 9 9 9 9 8 7 6 5 5 6 5 6 6 4 6 7 7 8 9 8 6 7 7 7 7 5 6 1 6 4 9 10 10 11 12 12 12 12 11 9 6 4 5 6 7 6 8 9 9 10 13 15 16 18 18 18 20 20 18 18
6 7 6 8 8 9 8 8 7 7 9 9 9 9 9 8 9 8 9 8 7 6 6 6 7 6 7 7 5 5 4 5 6 6 7 7 7 7 7 8 7 2 4 2 3 4 5 7 8 10 11 12 11 9 6 4 5 6 7 6 8 8 9 10 13 14 15 14 16 17 15 14 12 19
7 7 7 7 7 8 9 10 9 9 9 8 9 8 7 7 7 7 6 6 7 6 6 4 6 7 7 4 5 5 4 2 0 3 5 7 5 5 7 6 8 7 4 4 10 10 11 11 10 10 11 10 10 8 6 5 5 6 6 7 8 9 9 9 9 11 12 12 13 14 14 11 15 6
7 6 7 6 8 8 6 6 7 7 6 6 7 6 6 6 6 6 6 6 5 5 5 3 2 3 4 3 2 3 4 4 3 4 3 5 6 7 6 6 8 7 5 5 2 3 4 4 6 5 7 9 8 8 7 7 5 5 6 8 8 8 9 9 9 8 7 7 7 8 8 7 7 12
3 3 5 8 8 7 8 10 9 8 8 5 5 5 5 5 5 5 4 5 5 5 4 5 4 4 4 3 4 3 2 2 3 3 2 3 4 5 5 5 4 6 8 8 7 2 3 1 5 5 4 5 8 8 7 4 7 7 8 10 9 9 9 9 10 10 9 8 6 6 5 6 7 8
4 6 7 7 11 10 11 11 11 10 10 10 8 6 5 5 4 5 5 5 5 5 5 5 4 6 5 5 8 9 6 3 2 3 3 4 4 4 5 4 1 5 6 7 6 5 1 2 4 4 1 3 5 2 3 1 1 8 10 10 9 9 10 9 10 11 11 9 8 7 7 6 7 8
5 7 6 7 8 8 9 9 13 12 13 12 12 13 11 7 3 3 5 5 4 5 5 5 5 5 6 3 3 4 6 3 3 2 1 3 3 4 4 4 4 3 4 3 5 4 4 1 3 2 1 4 4 3 3 7 7 8 8 9 8 9 11 11 11 12 12 11 10 9 8 8 7 7
5 6 6 6 5 5 6 7 7 10 13 14 14 13 12 9 7 4 2 5 4 4 4 6 5 5 4 4 3 4 5 5 5 4 4 2 1 3 3 2 3 2 1 2 3 5 4 5 2 6 5 4 3 5 5 7 8 8 8 9 8 8 10 11 11 13 13 12 11 9 8 8 8 8
5 4 4 4 5 5 10 8 7 7 8 12 14 14 13 11 11 8 7 6 2 2 3 4 5 5 5 5 3 4 5 4 4 4 4 3 3 2 3 3 3 2 1 1 2 3 5 6 5 5 3 2 3 6 8 8 1 6 6 7 10 10 10 11 11 13 14 14 13 12 11 10 9 8
3 4 4 4 4 5 6 6 7 7 8 8 7 6 5 4 7 9 9 7 7 4 2 3 6 5 4 5 5 4 4 4 4 4 4 3 4 3 4 3 4 4 3 2 1 1 4 4 2 1 0 2 5 6 9 11 8 7 6 8 10 12 11 11 10 10 13 14 13 12 10 10 9 8
3 3 4 4 5 5 5 6 9 8 8 8 7 6 6 6 4 3 5 4 3 3 2 3 5 6 5 5 5 3 3 4 5 4 4 4 4 4 5 5 5 5 3 3 3 1 1 2 1 1 1 4 5 4 8 10 11 10 9 9 10 9 9 8 8 9 10 11 12 12 11 10 10 9
4 4 4 5 5 5 5 9 13 12 10 8 7 7 7 6 4 4 3 2 4 4 3 3 5 6 7 8 6 5 3 3 4 5 5 2 2 3 4 4 3 2 2 3 2 2 1 2 2 1 2 4 5 5 5 9 12 11 11 12 12 11 10 9 8 7 7 8 9 10 11 11 10 9
6 5 4 3 4 5 4 9 10 11 13 7 8 7 7 6 5 5 6 5 5 7 8 8 8 9 10 8 7 6 6 5 4 4 4 2 3 4 4 4 3 2 1 2 4 0 1 1 1 1 2 4 5 5 5 4 8 13 12 11 12 12 12 11 10 9 8 7 7 6 6 7 9 10
6 6 7 5 4 4 4 7 8 10 10 7 7 7 7 7 6 6 7 7 7 11 8 6 8 7 3 5 7 7 7 7 5 2 3 2 2 3 2 3 2 2 0 2 2 2 3 2 1 1 3 4 4 5 4 4 5 10 10 11 11 12 11 12 11 9 8 7 7 7 7 7 8 6
6 5 6 8 5 4 5 5 6 9 9 6 7 6 6 6 7 7 8 8 9 8 7 5 5 4 5 3 3 4 7 8 5 2 2 1 2 3 3 4 3 1 2 2 3 2 1 3 3 4 3 0 2 2 4 3 3 3 4 6 6 9 11 10 10 9 8 7 6 5 5 5 6 5
5 6 6 5 5 2 3 4 6 8 9 6 6 5 5 6 7 7 7 7 6 6 7 5 5 4 4 5 4 2 3 4 3 3 2 1 1 2 3 2 2 3 4 3 6 1 1 2 4 2 1 2 3 3 1 3 5 5 5 6 6 6 8 9 6 7 8 6 6 5 4 3 3 2
6 6 4 3 3 1 3 3 5 7 9 9 6 4 4 5 7 9 6 8 9 3 6 4 4 5 3 1 2 4 4 4 4 3 2 3 5 4 5 5 5 4 4 7 8 1 1 1 3 1 1 3 3 5 3 6 6 6 4 4 4 1 1 5 5 4 4 6 7 7 5 5 4 3
4 3 4 1 4 6 5 4 5 7 8 10 5 4 6 10 10 7 6 4 6 5 5 6 5 5 5 4 5 5 4 3 2 2 3 4 5 5 6 7 6 6 7 8 10 3 1 1 3 5 3 5 2 4 5 4 4 4 4 5 5 5 5 4 3 2 1 2 2 3 3 1 3 4
4 3 3 4 8 7 7 6 7 7 8 8 3 7 10 10 11 6 5 5 2 4 4 5 6 6 5 5 5 5 3 3 2 5 5 6 7 8 8 8 6 6 6 7 9 8 2 2 2 4 5 4 7 5 5 4 3 3 6 5 5 5 5 4 4 4 3 3 4 4 3 1 3 4
3 3 2 3 7 9 9 9 8 8 6 4 8 9 10 8 6 4 5 6 5 3 5 5 5 5 4 4 5 5 5 4 5 5 6 7 6 7 7 8 8 8 8 8 8 8 6 4 3 1 5 7 7 6 6 5 5 5 5 4 4 4 4 4 3 3 3 3 4 5 4 4 4 3
0 2 5 9 10 11 10 10 10 9 9 8 8 6 8 10 4 5 5 5 5 5 6 5 5 5 5 5 5 5 5 5 5 4 4 5 5 5 6 7 8 8 7 8 9 9 8 7 5 4 5 4 5 5 5 5 4 4 4 4 4 3 4 4 4 3 3 4 5 5 5 5 5 5
4 7 8 10 11 11 9 5 3 0 2 2 3 9 9 5 4 4 4 4 5 6 5 5 5 3 3 3 3 5 6 5 6 4 4 4 5 4 4 5 7 7 9 9 10 9 9 8 7 6 7 5 5 7 6 6 5 4 5 5 6 5 4 4 5 5 5 5 4 4 4 5 6 6
5 7 8 6 6 6 8 9 8 3 4 3 4 2 3 3 5 5 4 4 5 5 5 5 4 4 5 3 3 6 5 6 6 5 4 4 4 4 4 6 6 7 7 9 10 10 8 9 10 8 8 8 9 8 7 6 6 5 5 4 3 4 3 4 4 5 5 5 5 5 5 6 6 6
6 6 6 6 5 4 3 0 0 2 2 2 3 3 3 4 4 6 8 7 3 3 3 3 2 4 4 5 4 5 6 5 5 3 3 4 4 4 4 5 7 6 7 7 8 10 11 10 9 8 10 7 7 6 7 6 6 5 6 6 5 5 4 4 4 5 4 5 6 6 7 7 6 6
6 6 7 4 4 3 1 1 2 3 3 3 4 4 3 4 3 3 4 4 5 4 4 4 5 5 4 5 4 5 5 5 5 4 4 4 4 5 6 7 6 6 7 7 6 7 8 10 11 10 8 9 8 7 5 6 6 5 5 4 4 5 4 5 4 5 5 6 6 6 6 6 6 6
4 5 7 3 2 2 2 2 3 3 2 2 3 3 4 4 4 4 4 4 4 3 4 4 4 4 4 4 4 4 4 4 3 4 4 3 4 6 6 6 6 5 4 4 4 4 4 6 7 9 10 10 9 11 7 5 5 5 4 3 5 5 5 4 6 6 4 5 5 5 4 6 6 6
4 6 5 3 3 2 2 3 3 3 2 2 3 3 4 3 4 4 3 4 4 3 3 3 3 3 3 4 3 4 4 3 3 3 3 3 5 5 5 6 5 5 5 4 3 2 2 2 3 4 5 5 7 7 12 9 5 4 3 5 4 5 5 4 5 6 6 4 4 5 4 5 5 5
6 6 2 1 2 2 2 2 2 3 2 2 2 2 4 4 4 4 3 3 3 4 3 3 3 3 3 3 3 3 3 4 3 3 3 3 4 4 5 5 5 5 4 5 5 5 2 1 1 2 4 4 5 5 6 10 11 5 4 4 4 4 5 5 6 6 6 6 5 5 3 4 5 5
7 2 2 2 0 2 3 2 2 2 3 2 2 3 3 3 3 3 2 3 2 3 3 3 3 3 3 3 2 2 3 3 2 2 3 3 3 4 5 5 5 5 5 4 5 5 5 4 3 3 4 5 6 7 5 2 8 11 6 4 4 4 4 4 5 6 6 5 6 6 4 5 7 6
6 5 2 3 3 1 1 2 2 1 2 3 4 3 3 3 3 2 2 2 3 2 2 3 3 3 3 3 3 3 3 2 2 3 3 3 3 4 4 4 4 5 5 4 4 5 5 6 6 4 3 5 6 5 3 4 4 7 13 6 2 3 4 4 5 5 6 5 6 5 4 7 8 6
6 6 1 2 3 1 2 2 2 1 2 2 3 2 1 1 3 2 3 3 2 2 2 3 3 2 2 2 2 2 3 3 3 3 3 3 4 4 4 4 4 4 5 5 4 4 5 6 6 6 6 5 6 5 5 4 4 3 8 15 5 2 4 4 6 5 5 5 5 5 6 6 8 12
7 3 1 1 3 3 3 1 2 1 2 2 2 1 1 1 3 2 3 3 2 2 2 3 3 2 2 2 2 2 2 3 3 2 3 3 3 4 4 4 4 4 5 5 5 4 4 5 5 5 6 6 6 6 5 5 5 4 5 10 15 6 2 2 4 4 4 4 5 4 5 4 3 1
3 2 1 3 2 4 3 2 1 3 3 3 3 2 1 1 2 3 3 3 2 3 3 2 1 2 2 2 2 2 2 2 2 2 3 4 3 4 5 6 4 4 5 5 5 5 4 3 5 10 8 6 6 5 4 5 6 5 6 5 10 13 12 7 3 2 2 3 3 3 4 4 4 3
2 3 2 2 3 2 3 3 2 4 2 3 0 3 4 3 4 6 5 4 3 2 2 2 2 2 2 2 2 1 1 1 3 4 3 2 3 4 5 5 4 4 4 5 4 4 3 5 8 7 5 4 3 5 6 5 5 4 3 3 4 7 11 13 13 9 5 2 2 4 3 3 4 4
1 2 2 3 3 2 3 3 2 5 2 4 2 2 3 4 3 4 4 3 3 2 2 2 2 2 2 1 1 1 2 2 3 3 3 3 3 4 3 4 4 4 4 4 3 3 3 3 4 4 4 4 5 4 6 5 4 4 3 3 3 3 4 10 12 13 13 13 8 3 1 1 2 2
2 3 3 4 4 4 2 3 2 2 5 3 6 6 3 5 6 5 4 4 3 3 2 3 3 2 2 2 0 1 2 2 3 3 3 2 2 3 4 3 3 4 4 4 3 3 3 4 4 4 4 4 4 4 5 4 4 4 4 3 3 4 3 2 3 7 10 12 14 11 8 7 7 8
3 1 3 4 3 4 4 3 4 4 3 4 3 1 1 3 6 5 5 4 4 3 3 2 2 3 3 2 2 2 2 2 2 3 3 3 3 3 4 4 4 4 4 4 4 4 3 4 5 4 4 4 3 3 3 3 4 4 3 3 4 4 4 3 4 5 5 6 10 12 11 12 14 15
Wind_Direction
13 6 355 343 337 12 5 349 30 22 318 293 340 350 4 100 7 9 335 349 341 328 348 9 357 49 92 132 216 290 312 145 170 181 209 173 175 177 185 189 198 194 208 223 230 231 233 232 231 230 230 232 236 235 236 232 230 231 229 229 226 222 219 217 213 219 224 220 227 227 223 220 219 221
33 16 358 1 340 8 2 336 326 248 215 248 74 302 17 53 84 83 347 318 355 327 335 348 280 278 74 33 351 305 98 181 162 348 26 16 143 171 184 189 194 201 205 205 212 219 223 227 229 228 227 223 225 227 230 232 233 234 230 232 235 233 229 227 216 220 225 222 221 220 220 223 222 219
357 44 3 4 337 357 345 306 297 346 306 295 99 264 269 178 207 148 127 284 341 340 316 329 358 330 156 142 311 335 22 113 62 109 99 34 124 150 187 194 199 204 215 215 207 209 211 218 225 226 227 226 227 229 232 233 232 238 242 242 240 241 240 231 224 220 227 224 220 218 214 218 224 224
352 34 0 344 327 318 300 330 1 334 321 347 339 350 11 341 332 121 152 198 264 257 298 334 338 324 10 356 325 138 306 142 101 19 357 75 143 170 186 196 200 203 205 219 221 204 205 210 216 224 225 223 225 227 231 236 234 234 236 243 247 243 238 238 236 224 222 225 221 218 216 213 217 221
14 22 353 337 309 314 341 16 343 315 325 328 278 231 228 270 249 86 179 236 282 352 357 333 307 325 354 333 343 342 342 322 1 17 2 348 349 337 316 249 203 201 202 208 215 207 203 206 217 224 227 225 223 225 228 231 231 223 232 236 235 234 221 219 223 224 227 225 219 220 217 214 214 218
15 352 6 326 341 350 348 341 321 338 335 337 350 358 9 11 0 5 20 9 360 328 356 354 345 331 346 312 338 346 356 354 5 360 353 329 320 292 295 293 264 203 204 205 210 216 205 204 206 217 228 230 228 225 227 229 227 211 196 214 222 224 223 218 211 213 221 239 235 227 224 218 217 219
6 6 343 346 350 346 1 353 348 10 355 341 348 342 11 3 359 8 31 25 11 358 347 350 331 329 356 352 344 334 325 335 330 296 288 323 313 304 287 284 283 205 195 200 206 208 202 198 201 206 220 229 234 228 229 227 222 212 208 192 200 199 211 218 211 212 209 218 227 226 223 223 224 221
13 7 351 357 7 14 7 3 6 3 357 349 5 3 3 357 346 358 4 2 1 10 337 338 338 347 345 344 337 345 342 330 307 273 307 280 282 279 283 280 283 251 202 202 202 205 202 196 200 203 208 220 229 239 234 224 210 211 207 198 182 197 209 217 213 211 212 218 225 226 228 226 225 226
33 6 1 343 38 19 11 3 1 355 357 347 1 358 7 4 359 352 350 345 354 349 332 325 330 335 322 338 16 12 356 340 342 351 357 347 330 328 309 286 284 19 198 187 200 211 208 198 202 210 215 217 223 226 225 210 209 206 211 197 166 187 199 205 201 204 209 215 223 227 230 235 239 233
46 357 3 12 33 32 13 9 358 2 358 358 353 2 6 1 355 352 348 344 336 339 339 342 339 349 347 357 340 5 1 349 341 340 339 341 334 328 333 337 308 175 169 158 192 209 218 217 216 220 224 230 228 229 218 195 196 210 211 194 170 175 186 191 196 201 204 205 212 224 231 230 235 253
23 12 4 27 34 32 20 15 8 359 356 358 356 8 358 356 348 346 335 336 338 339 334 357 28 330 317 327 330 328 339 298 285 320 339 331 328 328 338 331 333 344 330 220 194 190 193 196 201 214 221 231 237 233 225 205 194 203 203 183 181 171 170 174 184 197 206 213 216 221 229 232 225 200
19 12 340 27 30 36 26 11 7 7 360 354 353 358 349 343 341 336 336 334 330 332 334 333 260 264 295 318 311 313 333 349 358 18 354 315 319 332 341 337 341 333 335 337 299 206 184 151 176 194 220 233 237 230 229 224 205 200 178 180 189 174 160 158 155 160 171 188 205 220 228 234 226 184
28 16 349 35 29 7 6 18 19 4 5 350 341 346 330 337 335 327 328 323 322 322 332 334 329 311 318 300 311 319 357 338 310 295 298 279 305 322 318 328 342 357 345 339 337 88 25 130 169 171 189 214 215 223 214 213 199 202 174 179 185 170 151 150 147 146 149 156 168 183 194 189 200 208
18 45 10 4 16 18 11 5 8 3 356 347 339 328 323 322 329 322 321 331 327 334 340 330 323 322 323 8 347 331 314 283 297 322 313 320 327 313 316 310 26 5 10 352 349 353 76 306 335 321 216 177 171 167 153 85 334 177 171 169 174 162 145 147 146 141 139 139 143 148 153 170 190 208
10 28 15 9 17 38 11 9 357 359 351 346 339 332 324 323 310 318 329 323 316 329 331 314 327 332 318 320 218 248 299 332 302 272 270 296 322 321 337 329 323 26 3 352 331 325 338 284 179 185 29 27 56 65 88 79 88 128 143 155 163 158 141 142 146 138 135 135 139 145 147 147 148 150
30 17 15 13 7 38 6 21 353 355 346 343 342 342 341 335 335 323 299 285 304 339 329 324 318 310 310 306 321 339 334 338 324 333 329 312 323 309 298 293 302 297 39 5 337 312 319 342 16 63 35 23 20 30 34 114 127 138 148 151 148 147 139 140 145 137 137 138 139 139 140 143 149 151
25 26 19 7 33 19 15 18 357 351 341 335 341 348 352 358 355 352 336 336 328 259 275 301 304 314 314 319 320 327 316 314 312 329 322 331 315 292 279 287 308 312 101 33 306 308 328 356 30 61 27 334 7 40 18 7 149 147 152 146 142 139 143 142 147 141 139 140 140 143 146 148 150 148
28 29 16 354 41 41 40 17 2 352 337 327 327 344 350 348 342 342 351 9 3 358 309 276 298 308 314 309 315 321 321 331 322 319 309 320 303 301 295 291 260 264 238 237 113 329 28 11 53 108 11 50 53 45 26 46 69 95 98 130 138 139 145 147 146 143 140 139 141 142 145 146 150 151
35 48 25 354 9 44 50 18 7 354 337 327 330 347 344 348 329 347 346 1 352 347 309 310 308 317 323 327 335 339 348 327 316 301 291 298 302 289 283 268 249 249 217 224 161 165 258 309 323 299 120 110 85 60 42 52 69 82 90 91 103 113 126 135 140 143 141 140 142 144 147 151 153 157
61 52 26 355 7 54 45 19 5 353 339 328 343 348 344 344 358 12 5 308 303 325 309 304 309 302 298 297 297 302 299 304 298 309 313 295 271 297 286 282 306 281 44 343 145 189 191 274 251 144 112 103 92 70 63 44 69 72 71 78 82 87 90 94 100 111 128 142 148 154 153 156 158 159
86 69 41 22 11 29 34 17 356 346 344 337 353 351 349 351 354 10 1 348 286 271 278 272 275 282 285 291 291 275 269 264 279 292 296 328 351 322 324 316 332 327 75 34 356 327 120 252 311 80 89 118 92 75 68 66 79 86 81 78 79 80 82 80 85 94 105 114 117 134 153 154 151 144
122 106 83 51 28 26 21 14 346 343 350 348 351 354 353 352 355 358 349 336 335 330 313 305 300 290 318 323 314 291 273 270 253 205 279 326 328 305 314 308 292 293 42 98 216 129 205 137 358 123 99 90 81 104 103 100 82 84 80 79 87 93 92 90 84 83 85 98 114 128 142 149 144 152
117 105 89 74 54 44 26 4 340 338 355 348 342 358 348 352 352 347 336 332 332 330 340 346 333 2 356 348 331 334 356 15 12 2 318 344 303 319 339 322 317 250 71 8 337 209 149 125 155 244 149 192 82 114 124 125 115 107 96 83 71 81 90 92 100 101 96 96 101 108 124 151 166 165
113 131 133 87 64 56 50 8 342 339 347 343 329 354 358 355 337 334 321 316 331 341 341 333 320 350 7 5 313 6 28 13 7 14 45 85 354 3 341 350 32 27 10 347 1 28 152 147 160 293 317 157 145 129 71 49 60 64 89 91 85 87 95 90 76 95 110 113 117 115 123 151 263 255
38 28 44 90 66 73 59 21 344 338 328 328 322 10 341 335 307 304 308 319 346 354 331 325 348 358 20 3 26 19 33 19 1 17 11 50 42 22 26 27 34 55 30 360 353 223 107 143 131 128 212 41 76 111 97 76 57 50 41 60 77 83 151 114 116 106 116 121 126 130 143 166 217 276
40 32 3 82 52 10 7 354 337 323 308 312 310 334 309 299 307 307 309 348 4 338 349 9 12 12 21 25 37 44 38 26 7 334 39 46 66 52 45 42 34 41 22 355 2 340 354 174 149 152 149 124 130 123 107 75 67 65 56 48 45 35 23 52 83 96 111 94 83 69 52 27 280 254
20 12 3 350 348 332 334 322 311 307 300 295 344 314 313 312 309 334 2 16 344 328 18 15 13 17 13 25 40 44 38 19 17 63 60 62 63 55 46 41 46 37 15 359 1 2 19 135 148 158 144 130 128 118 103 112 104 76 59 44 45 28 24 37 59 52 28 24 30 11 105 12 324 340
48 341 329 325 313 307 308 302 289 281 284 277 287 301 300 320 5 10 3 12 7 351 25 28 19 20 359 27 41 36 40 41 51 62 62 61 65 70 61 45 38 33 20 11 4 6 14 42 73 109 130 145 133 131 116 93 106 101 94 75 58 46 36 36 56 59 42 34 43 22 33 33 9 348
57 256 278 280 283 283 287 285 282 264 254 254 270 283 1 11 9 11 18 360 4 14 32 32 13 14 15 3 35 49 44 50 52 56 65 71 76 86 87 71 54 39 31 17 11 11 13 24 58 80 80 62 85 102 111 117 119 123 130 116 83 48 51 44 49 47 46 47 54 43 39 23 9 6
231 250 256 262 269 277 268 251 229 274 65 154 57 39 27 5 10 356 18 2 15 17 19 33 26 23 9 36 6 43 41 42 44 38 53 59 55 54 68 72 58 50 38 29 23 16 21 23 24 63 72 54 70 90 93 102 84 84 97 104 119 92 62 55 58 49 45 45 45 51 36 36 32 10
228 245 252 255 252 256 285 280 270 55 50 43 46 75 55 19 13 352 18 15 19 19 15 22 15 32 33 24 40 51 37 39 31 23 54 62 73 67 68 67 63 54 46 38 34 27 27 35 33 37 70 66 60 59 71 78 87 76 58 58 73 99 108 88 80 74 64 53 54 42 38 32 22 27
321 309 280 250 251 258 242 327 147 126 120 73 69 52 48 44 14 9 20 27 23 21 9 21 16 51 37 32 37 57 44 39 29 10 41 49 56 58 66 65 58 59 55 46 41 41 43 47 48 43 53 51 69 66 60 65 73 77 79 69 68 64 63 77 103 100 87 88 68 59 49 35 23 19
309 305 281 253 211 201 82 29 19 9 47 39 71 73 52 57 30 6 10 14 360 357 12 26 31 33 35 36 41 62 55 30 24 6 26 29 58 61 56 59 61 57 62 64 56 58 60 62 60 62 61 55 40 38 68 75 49 51 71 66 69 73 68 41 48 107 114 84 82 71 56 51 36 18
301 283 286 289 44 0 47 22 40 15 23 24 48 68 79 58 42 14 15 13 340 0 19 18 32 42 40 45 45 52 54 58 38 6 12 44 60 77 68 63 58 67 76 83 86 96 101 95 86 76 73 69 62 48 31 46 71 65 55 49 60 67 52 43 42 33 57 85 94 83 66 65 52 21
274 276 259 1 8 353 23 24 19 356 7 10 37 36 67 77 51 32 18 2 342 0 15 26 29 40 57 55 50 51 50 46 41 35 23 40 54 62 75 80 72 55 50 54 79 139 152 165 149 127 107 92 73 60 51 41 34 24 71 61 56 59 52 49 44 48 39 54 75 81 72 56 54 38
268 257 87 239 355 8 20 45 41 353 343 13 43 40 65 60 60 41 27 334 335 359 7 13 30 24 40 64 55 60 71 64 29 11 48 46 72 78 75 77 78 67 52 41 22 6 4 143 200 113 105 85 72 73 48 54 56 12 32 87 72 76 72 59 56 57 53 55 49 72 56 54 49 34
283 240 140 113 63 37 357 12 59 12 340 2 21 46 54 71 70 63 22 337 2 17 10 360 28 20 26 28 41 58 80 75 68 14 54 39 62 83 84 81 86 86 70 48 25 27 17 23 42 83 103 97 88 82 56 338 58 49 19 14 84 83 92 88 79 76 68 77 73 61 70 80 66 47
295 302 132 120 120 190 193 18 38 335 334 22 36 26 28 68 96 91 68 30 9 15 13 19 16 28 30 17 32 35 54 70 52 42 47 58 63 69 82 88 82 83 81 55 49 39 28 38 32 29 73 105 112 90 86 26 10 19 24 6 33 99 104 101 91 91 85 71 82 87 92 80 74 68
260 273 129 154 136 171 58 38 309 328 45 54 68 26 346 82 114 109 87 58 16 17 16 27 14 16 28 30 40 48 49 50 51 35 41 55 60 72 84 85 88 86 84 77 59 47 48 51 46 47 51 71 85 92 98 98 56 17 22 30 5 52 89 104 106 105 102 100 90 90 86 101 117 106
231 243 195 282 144 106 105 196 269 91 135 86 109 258 276 116 111 119 100 93 76 37 29 37 28 15 21 23 31 50 63 60 70 58 52 59 66 76 81 89 94 92 89 86 83 77 67 71 78 80 88 93 102 113 122 114 117 65 40 31 32 40 4 142 121 134 126 132 148 140 133 151 89 74
161 279 222 125 122 130 177 179 333 276 154 156 160 174 100 247 110 94 84 105 74 71 61 62 35 39 49 5 20 47 63 54 68 75 72 77 77 76 93 95 90 94 96 90 85 77 78 84 114 127 123 127 140 159 112 80 59 47 40 30 22 36 47 41 59 57 89 159 154 122 119 104 111 88
205 233 209 159 140 163 145 137 223 264 115 119 341 159 173 190 158 125 110 108 105 91 102 111 84 49 42 9 10 14 69 74 79 69 64 51 69 67 76 80 84 80 82 89 86 92 130 154 147 139 153 170 148 92 83 83 94 88 85 67 55 46 56 64 63 65 61 5 111 121 112 122 116 102
160 271 264 130 136 124 95 108 213 260 249 138 173 247 189 152 121 107 109 104 107 126 109 97 109 97 68 21 353 8 39 54 68 76 70 70 79 92 92 85 93 96 94 101 104 122 116 106 88 93 89 89 87 108 114 126 134 144 145 139 128 112 79 73 73 67 61 59 51 45 288 210 198 167
253 220 210 147 158 131 152 197 225 241 271 211 173 210 191 151 135 125 129 126 119 135 154 129 120 124 119 125 50 21 39 69 82 94 91 84 96 95 98 110 107 112 112 107 123 122 147 139 132 118 115 107 130 134 132 134 124 137 144 143 168 160 141 168 120 72 59 43 34 36 43 70 90 95
209 283 295 130 165 150 185 181 195 226 236 276 218 135 227 188 121 121 127 133 121 123 133 124 97 103 136 142 158 121 117 119 129 144 154 151 144 132 120 131 145 141 128 138 132 139 142 132 122 114 113 140 169 162 149 138 136 139 150 147 128 120 125 130 103 84 64 58 26 29 42 58 71 82